Location: Unspecified
(0.0000°N, 0.0000°E)
Time: 02:30:09
(UTC+00:00)

Tiangong - Visible Passes

Search period start: 31 May 2026 00:00
Search period end: 10 June 2026 00:00
Orbit: 380 x 395 km, 41.5° (Epoch: 30 May)

Date Brightness Start Highest point End Pass type
(mag) Time Alt. Az. Time Alt. Az. Time Alt. Az.
6 Jun 1.1 19:56:10 10° NNW 19:56:17 11° NNW 19:56:17 11° NNW visible
7 Jun 0.5 18:59:30 10° NE 18:59:50 10° NE 19:00:09 10° NE visible
8 Jun -1.1 19:34:23 10° NW 19:36:42 44° NNW 19:36:42 44° NNW visible
9 Jun -0.7 18:35:46 10° NNW 18:38:30 26° NE 18:40:47 13° E visible
